Location: Kitchener-Waterloo
(43.4500°N, 80.5000°W)
Time: 06:21:46
(UTC-04:00)

Daily predictions for brighter satellites

Satellite Brightness Start Highest point End
(mag) Time Altitude Azimuth Time Altitude Azimuth Time Altitude Azimuth
Okean 1-7 Rocket 3.9 21:19:18 10° SSE 21:23:36 49° E 21:27:58 10° NNE
Cosmos 1606 Rocket 4.5 21:22:13 10° NNE 21:26:06 31° ENE 21:29:58 10° SE
Okean 2 4.1 21:22:42 10° SSE 21:26:23 33° E 21:30:05 10° NNE
Meteor 1-15 Rocket 4.4 21:26:03 10° N 21:31:33 55° ENE 21:36:59 10° SSE
Cosmos 1025 Rocket 3.2 21:27:31 10° S 21:31:39 52° E 21:35:49 10° NNE
SPOT 5 4.1 21:28:45 10° ESE 21:32:06 22° ENE 21:35:30 10° NNE
Cosmos 1697 Rocket 4.1 21:28:03 10° N 21:32:37 24° NE 21:37:08 10° ESE
CZ-4B DEB 2.5 21:30:01 10° SSE 21:33:00 85° ENE 21:36:00 10° N
SAR-Lupe-1 4.1 21:29:28 10° SSE 21:33:03 76° ENE 21:36:39 10° N
Cosmos 1726 Rocket 4.4 21:31:08 10° N 21:35:02 32° ENE 21:38:56 10° SE
Cosmos 405 3.0 21:33:27 10° N 21:37:02 85° E 21:40:33 10° S
Cosmos 2369 4.2 21:32:22 10° NNW 21:37:56 48° ENE 21:43:24 10° SE
Cosmos 1666 3.3 21:36:19 10° NNW 21:40:00 56° W 21:43:40 10° S
USA 186 4.0 21:38:46 10° SSW 21:41:21 23° W 21:43:54 10° NW
CENTAUR R/B 4.2 21:34:14 10° NW 21:41:33 40° WSW 21:49:11 10° S
COSMOS 2487 3.6 21:38:50 10° SSE 21:41:47 25° E 21:44:45 10° NE
Meteor 2-9 Rocket 4.4 21:39:06 10° NNW 21:44:38 80° W 21:50:17 10° S
ERS-1 Rocket 3.1 21:41:59 10° SSE 21:46:55 63° ENE 21:51:54 10° N
USA 245 4.2 21:47:12 11° ESE 21:48:22 14° ENE 21:49:44 10° NE
Cosmos 1371 Rocket 4.1 21:43:02 10° NNW 21:48:23 83° WSW 21:53:37 10° SSE
Cosmos 1833 Rocket 3.5 21:44:49 10° SSE 21:49:33 29° ESE 21:54:19 10° NE
OAO 2 Rocket 4.5 21:47:01 10° WSW 21:51:07 26° SSW 21:54:39 13° SE
ISS -2.3 21:48:16 10° W 21:51:24 39° NNW 21:54:33 10° NE
Cosmos 1238 Rocket 4.2 21:44:44 10° S 21:51:30 86° W 21:57:50 10° N
CRYOSAT 2 4.3 21:47:15 10° S 21:52:05 79° E 21:56:57 10° N
Cosmos 2058 Rocket 3.7 21:50:46 10° N 21:54:57 40° ENE 21:58:31 14° SE
Meteor 1-29 3.9 21:58:08 10° N 22:01:26 48° WNW 22:04:40 10° SSW
Cosmos 1437 Rocket 2.8 22:01:37 10° NNW 22:05:28 77° W 22:09:19 10° S
YAOGAN 11 4.3 22:02:03 14° SE 22:05:33 53° ENE 22:09:48 10° N
Cosmos 2181 Rocket 4.2 21:59:39 10° SSE 22:05:51 57° E 22:11:58 10° NNE
ASTEX 1 3.7 22:02:10 10° S 22:07:02 69° W 22:11:56 10° N
Cosmos 1939 Rocket 4.3 22:03:39 10° SSW 22:07:10 33° W 22:10:44 10° NNW
Intercosmos 24 4.0 22:03:55 10° NNW 22:07:38 63° W 22:11:10 10° S
Cosmos 1515 3.6 22:09:42 10° S 22:13:29 78° E 22:17:19 10° N
H-2A R/B 3.9 22:11:41 12° ESE 22:14:20 20° ENE 22:17:33 10° NNE
Cosmos 1980 Rocket 3.2 22:16:52 10° N 22:22:00 34° NE 22:25:49 16° ESE
Cosmos 1626 Rocket 4.4 22:21:47 21° SE 22:23:51 32° E 22:27:42 10° NNE
ARGOS 3.2 22:20:51 16° SSE 22:25:14 80° ENE 22:30:41 10° NNW
TELKOM 3 3.5 22:30:42 10° WNW 22:33:02 57° SSW 22:33:54 37° SSE
Cosmos 2228 2.9 22:28:44 10° N 22:33:03 87° ENE 22:35:49 22° S
Cosmos 2322 Rocket 4.2 22:29:31 10° N 22:33:23 18° NE 22:37:14 10° E
Cosmos 921 Rocket 3.6 22:29:26 10° NNW 22:33:48 55° WSW 22:37:02 17° S
Tiangong 2 0.9 22:34:52 10° W 22:38:03 77° S 22:39:22 32° ESE
SL-8 Rocket 4.0 22:33:14 10° N 22:39:32 82° E 22:44:11 19° S
H-2A R/B 2.0 22:38:01 23° SSE 22:41:04 71° ENE 22:46:09 10° N
Cosmos 1766 4.1 22:37:45 10° N 22:41:21 34° ENE 22:42:36 27° ESE
Landsat 7 4.1 22:40:01 25° SE 22:42:33 54° ENE 22:47:12 10° N
Cosmos 2366 rocket 4.0 22:40:18 10° N 22:46:27 69° E 22:50:17 24° SSE
CZ-3A R/B 1.0 22:48:56 10° WSW 22:51:24 37° NW 22:51:31 36° NNW
Lacrosse 5 rocket 3.5 22:51:31 10° NNW 22:55:20 25° NNE 22:59:10 10° E
Meteor 1-4 Rocket 2.6 22:53:26 10° NNW 22:57:01 73° W 22:58:16 37° S
Terra 2.1 22:55:30 30° SE 22:57:35 53° ENE 23:02:14 10° N
Cosmos 1602 Rocket 3.4 22:57:23 30° S 22:59:29 76° E 23:03:49 10° NNE
Cosmos 2082 Rocket 2.4 22:54:35 10° SSW 23:00:15 72° WNW 23:05:55 10° NNE
Cosmos 1269 Rocket 4.1 23:01:07 26° S 23:03:59 60° ESE 23:09:13 10° NNE
Cosmos 1420 Rocket 4.0 23:01:15 10° NNW 23:06:32 81° WSW 23:08:59 32° SSE
DMSP B5D2-2 4.0 23:03:44 10° NNE 23:09:02 75° ESE 23:11:57 27° S
SPOT 5 3.8 23:07:20 18° SSW 23:09:59 35° W 23:14:02 10° NNW
Cosmos 1805 3.9 23:06:24 10° N 23:10:05 39° ENE 23:10:42 36° ESE
Cosmos 1048 Rocket 3.9 23:08:12 26° S 23:11:05 72° ESE 23:16:16 10° NNE
Meteor 2-14 Rocket 4.4 23:06:30 10° N 23:12:36 85° E 23:15:45 31° S
deb Chang Zheng 4 3.7 23:09:19 10° NNE 23:13:32 52° E 23:14:27 43° SE
Meteor 1-22 Rocket 4.2 23:11:19 10° NNW 23:16:37 73° W 23:19:21 30° S
Cosmos 1697 Rocket 3.0 23:11:27 10° NNW 23:16:57 57° WSW 23:19:38 29° S
Cosmos 1758 4.0 23:13:48 10° N 23:17:33 38° ENE 23:18:04 36° E
Cosmos 389 Rocket 3.6 23:15:25 10° N 23:18:30 29° ENE 23:18:31 29° ENE
Spot 4 4.2 23:21:37 37° ESE 23:23:06 51° ENE 23:27:46 10° N
USA 267 4.3 23:18:38 10° ENE 23:22:57 23° ESE 23:22:57 23° ESE
Lacrosse 5 3.1 23:25:31 24° E 23:25:31 24° E 23:28:24 10° ENE
CARTOSAT-1 3.5 23:24:03 45° S 23:25:19 80° WSW 23:29:40 10° NNW
Cosmos 2360 4.2 23:20:04 10° NNW 23:25:49 85° ENE 23:28:04 39° SSE
Timation 2 Rocket 4.0 23:20:39 10° SSW 23:27:02 79° WNW 23:33:12 10° NNE
SL-16 R/B 3.1 23:21:44 10° NNW 23:27:04 40° ENE 23:29:33 26° ESE
Iridium 2 3.5 23:23:25 10° N 23:27:14 79° E 23:27:42 66° SSE
ISS -1.0 23:26:01 10° NW 23:28:32 19° N 23:31:02 10° NE
NOSS 3-1 (C) 4.4 23:22:23 10° NNW 23:29:45 58° NE 23:34:52 24° ESE
Cosmos 1833 Rocket 3.8 23:27:55 10° SW 23:33:16 43° WNW 23:38:38 10° NNE
IGS 5A 3.6 23:32:35 49° SSW 23:33:34 68° WSW 23:37:44 10° NNW
DELTA 2 DEB (DPAF) 4.4 23:34:36 46° ESE 23:35:34 58° ENE 23:39:59 10° N
SL-19 R/B 4.0 23:32:32 10° NNE 23:37:53 88° WNW 23:40:12 35° SSW
ATLAS CENTAUR R/B 2.1 23:34:33 10° NNW 23:37:58 35° NE 23:38:30 33° ENE
SL-24 R/B - RUBIN 2 4.5 23:33:05 12° SSW 23:39:22 87° ESE 23:45:54 10° NE
Cosmos 1842 3.3 23:38:51 55° SW 23:39:35 72° W 23:43:32 10° N
Cosmos 1271 Rocket 3.0 23:36:07 10° NNW 23:39:59 61° W 23:40:35 53° SW
CZ-4C R/B 3.2 23:45:30 61° ENE 23:45:30 61° ENE 23:49:03 10° N
Cosmos 1758 Rocket 3.5 23:47:43 58° ESE 23:47:59 59° E 23:52:18 10° NNE
Cosmos 2251 Rocket 3.9 23:47:57 43° SE 23:48:36 45° ESE 23:53:43 10° NNE
Cosmos 1733 3.9 23:45:09 10° N 23:48:41 40° ENE 23:48:41 40° ENE
Cosmos 1544 3.4 23:45:51 10° NNW 23:49:25 54° W 23:49:33 54° WSW
H-2A R/B 2.8 23:48:48 38° SW 23:49:59 47° W 23:54:22 10° NNW
